This is the latest recevied weather packets stored in our database for station/object NU3S-7. If no packets are shown the sender has not sent any weather packets the latest 10 day(s).
| Time | Temp. | Humidity | Pressure | Rain* | Wind** | Luminosity | Snow |
|---|---|---|---|---|---|---|---|
| 1777441037 | 14.44° C | 99% | 1012.3 hPa | 0 mm | - | - | - |
| 1777440436 | 14.44° C | 99% | 1012.2 hPa | 0 mm | - | - | - |
| 1777439834 | 14.44° C | 99% | 1012.2 hPa | 0 mm | - | - | - |
| 1777439233 | 15° C | 99% | 1012.5 hPa | 0 mm | - | - | - |
| 1777438033 | 15° C | 98% | 1012.3 hPa | 0 mm | - | - | - |
| 1777437432 | 15.56° C | 98% | 1012.6 hPa | 0 mm | - | - | - |
| 1777436831 | 15.56° C | 97% | 1012.5 hPa | 0 mm | - | - | - |
| 1777436230 | 15.56° C | 97% | 1012.7 hPa | 0 mm | - | - | - |
| 1777435662 | 15.56° C | 97% | 1012.8 hPa | 0 mm | - | - | - |
| 1777435630 | 15.56° C | 97% | 1012.8 hPa | 0 mm | - | - | - |
| 1777435029 | 16.11° C | 97% | 1013 hPa | 2.79 mm | - | - | - |
| 1777433828 | 16.11° C | 96% | 1013 hPa | 2.79 mm | - | - | - |
| 1777433228 | 16.11° C | 95% | 1012.9 hPa | 2.79 mm | - | - | - |
| 1777432627 | 16.67° C | 94% | 1012.7 hPa | 2.79 mm | - | - | - |
| 1777431424 | 17.78° C | 94% | 1012.5 hPa | 2.79 mm | - | - | - |
| 1777430222 | 17.78° C | 94% | 1012.6 hPa | 2.79 mm | - | - | - |
| 1777429621 | 17.22° C | 94% | 1012.9 hPa | 2.79 mm | - | - | - |
| 1777428421 | 17.22° C | 93% | 1013.1 hPa | 2.79 mm | - | - | - |
| 1777427217 | 17.22° C | 89% | 1013 hPa | 2.79 mm | - | - | - |
| 1777426611 | 17.78° C | 88% | 1012.9 hPa | 2.79 mm | - | - | - |
| 1777426011 | 18.33° C | 87% | 1012.5 hPa | 2.79 mm | - | - | - |
| 1777425410 | 18.33° C | 87% | 1012.3 hPa | 2.79 mm | - | - | - |
| 1777424810 | 17.78° C | 87% | 1012.2 hPa | 2.79 mm | - | - | - |
| 1777423609 | 18.89° C | 84% | 1011.8 hPa | 2.79 mm | - | - | - |
| 1777421808 | 20.56° C | 80% | 1011.6 hPa | 2.79 mm | - | - | - |
* Rain since midnight (hover to see other rain measurements)
** Current wind speed in m/s (hover to see current wind gust speed)